Regional Weather Roundup
Issued by NWS Tiyan, Guam

Home | Current Version | Previous Version | Text Only | Print | Product List | Glossary On
Versions: 1 2 3 4 5 6 7 8 9 10 11 12 13 14 15 16 17 18 19 20 21 22 23 24 25 26 27
000
ASGM40 PGUM 210712
RWRGUM
WEATHER ROUNDUP FOR THE MARIANAS
NATIONAL WEATHER SERVICE TIYAN GU
500 PM CHST SAT OCT 21 2017

GUZ001>004-210800-
MARIANA ISLANDS-

CITY           SKY/WX    TMP DP  RH WIND       PRES   REMARKS
GUAM AIRPORT   SUNNY     86  81  84 N9        29.77R HX 102
ANDERSEN AFB   MOSUNNY   82  77  83 N10       29.78R HX  91
ROTA AIRPORT   PTSUNNY   82  77  83 N8        29.77R HX  91
TINIAN AP      PTSUNNY   84  77  79 N7        29.75R HX  94
SAIPAN AP      PTSUNNY   86  77  74 N5        29.76R HX  97

$$





USA.gov is the U.S. government's official web portal to all federal, state and local government web resources and services.